STARLINK-37875

Last updated on Sun Aug 09 2026 00:02:04 GMT+0000 (Coordinated Universal Time)

1 69967U 26157AA 26220.16684108 .00021851 00000+0 39959-3 0 9998 2 69967 53.1592 176.7456 0001117 89.8430 270.2707 15.49327287 4717
UTC large
Height (km)
Speed (km/s)
/
Latitude / Longitude
Inclination (degrees)
Orbital Period (minutes)
Azimuth
Elevation
Range (km)
Doppler Factor

Next 0 passes for location: London (51.5072 / 0.1276)

No passes found over London.
STARLINK-37875